{"data":{"norad_id":60398,"epoch":"2026-09-21T22:00:03.000096Z","epoch_age_seconds":63241,"freshness":"FRESH","line1":"1 60398U 24141A   26264.91670139  .01384907  00000+0  64713-2 0  9998","line2":"2 60398  53.1595 198.7331 0001103  89.7049 331.6873 15.80082127  5707","mean_motion":15.80082127,"eccentricity":0.0001103,"inclination_deg":53.1595,"raan_deg":198.7331,"arg_perigee_deg":89.7049,"mean_anomaly_deg":331.6873,"bstar":0.0064713,"rev_number":570,"period_min":91.134503415594,"perigee_km":329.46824410177,"apogee_km":330.94810504729,"semimajor_km":6708.3451745745,"source":"CELESTRAK","updated_at":"2026-09-22T09:00:49.228418Z"}}